EN

Hourly Weather Lacznik

Today, 28 July, Wednesday

Time Temperature Precipitation Wind Pressure Humidity
00:00 +22°C° 0 mm 1 mps 743 mmHg 71%
01:00 +21°C° 0 mm 1 mps 743 mmHg 73%
02:00 +21°C° 0 mm 1 mps 743 mmHg 73%
03:00 +21°C° 0 mm 1 mps 743 mmHg 73%
04:00 +21°C° 0 mm 1 mps 743 mmHg 74%
05:00 +22°C° 0 mm 1 mps 743 mmHg 70%
06:00 +24°C° 0 mm 1 mps 743 mmHg 66%
07:00 +25°C° 0 mm 1 mps 743 mmHg 63%
08:00 +27°C° 0 mm 1 mps 743 mmHg 57%
09:00 +29°C° 0 mm 1 mps 742 mmHg 52%
10:00 +30°C° 0 mm 1 mps 742 mmHg 46%
11:00 +31°C° 0 mm 2 mps 742 mmHg 44%
12:00 +32°C° 0 mm 2 mps 742 mmHg 42%
13:00 +32°C° 0 mm 2 mps 742 mmHg 40%
14:00 +29°C° 1.9 mm 3 mps 742 mmHg 53%
15:00 +27°C° 1.9 mm 3 mps 742 mmHg 67%
16:00 +23°C° 1.9 mm 4 mps 742 mmHg 80%
17:00 +22°C° 0.6 mm 4 mps 742 mmHg 82%
18:00 +22°C° 0.6 mm 4 mps 742 mmHg 83%
19:00 +22°C° 0.6 mm 4 mps 742 mmHg 85%
20:00 +21°C° 0.6 mm 3 mps 743 mmHg 88%
21:00 +20°C° 0.6 mm 2 mps 743 mmHg 91%
22:00 +19°C° 0.6 mm 2 mps 744 mmHg 94%
23:00 +19°C° 0.1 mm 2 mps 744 mmHg 93%

Tomorrow, 29 July, Thursday

Time Temperature Precipitation Wind Pressure Humidity
00:00 +20°C° 0.1 mm 1 mps 744 mmHg 92%
01:00 +20°C° 0.1 mm 1 mps 744 mmHg 91%
02:00 +19°C° 0 mm 1 mps 744 mmHg 91%
03:00 +19°C° 0 mm 1 mps 744 mmHg 91%
04:00 +18°C° 0 mm 1 mps 744 mmHg 91%
05:00 +18°C° 0 mm 2 mps 744 mmHg 86%
06:00 +20°C° 0 mm 2 mps 744 mmHg 81%
07:00 +21°C° 0 mm 2 mps 744 mmHg 76%
08:00 +23°C° 0 mm 2 mps 744 mmHg 68%
09:00 +25°C° 0 mm 3 mps 744 mmHg 60%
10:00 +26°C° 0 mm 3 mps 744 mmHg 52%
11:00 +27°C° 0 mm 4 mps 744 mmHg 48%
12:00 +27°C° 0 mm 5 mps 744 mmHg 45%
13:00 +28°C° 0 mm 5 mps 744 mmHg 42%
14:00 +28°C° 0 mm 5 mps 744 mmHg 41%
15:00 +28°C° 0 mm 5 mps 743 mmHg 40%
16:00 +28°C° 0 mm 5 mps 743 mmHg 39%
17:00 +27°C° 0 mm 4 mps 743 mmHg 46%
18:00 +25°C° 0 mm 3 mps 743 mmHg 53%
19:00 +24°C° 0 mm 1 mps 743 mmHg 61%
20:00 +23°C° 0 mm 2 mps 743 mmHg 63%
21:00 +21°C° 0 mm 2 mps 743 mmHg 66%
22:00 +20°C° 0 mm 2 mps 743 mmHg 68%
23:00 +20°C° 0 mm 1 mps 743 mmHg 70%

Day after tomorrow, 30 July, Friday

Time Temperature Precipitation Wind Pressure Humidity
00:00 +19°C° 0 mm 1 mps 743 mmHg 71%
01:00 +19°C° 0 mm 1 mps 743 mmHg 73%
02:00 +19°C° 0 mm 1 mps 743 mmHg 73%
03:00 +19°C° 0 mm 1 mps 743 mmHg 73%
04:00 +18°C° 0 mm 1 mps 742 mmHg 73%
05:00 +20°C° 0 mm 1 mps 742 mmHg 69%
06:00 +21°C° 0 mm 1 mps 743 mmHg 64%
07:00 +23°C° 0 mm 1 mps 743 mmHg 60%
08:00 +25°C° 0 mm 1 mps 742 mmHg 55%
09:00 +26°C° 0 mm 1 mps 742 mmHg 50%
10:00 +28°C° 0 mm 2 mps 742 mmHg 46%
11:00 +29°C° 0 mm 2 mps 742 mmHg 43%
12:00 +30°C° 0 mm 3 mps 741 mmHg 41%
13:00 +31°C° 0 mm 3 mps 741 mmHg 38%
14:00 +31°C° 0 mm 3 mps 741 mmHg 38%
15:00 +32°C° 0 mm 4 mps 740 mmHg 39%
16:00 +32°C° 0 mm 4 mps 740 mmHg 39%
17:00 +29°C° 0 mm 3 mps 740 mmHg 46%
18:00 +28°C° 0 mm 2 mps 740 mmHg 54%
19:00 +26°C° 0 mm 1 mps 739 mmHg 61%
20:00 +25°C° 0 mm 1 mps 739 mmHg 64%
21:00 +24°C° 0 mm 1 mps 739 mmHg 66%
22:00 +23°C° 0 mm 1 mps 740 mmHg 68%
23:00 +22°C° 0.1 mm 1 mps 739 mmHg 71%

31 July, Saturday

Time Temperature Precipitation Wind Pressure Humidity
00:00 +22°C° 0.1 mm 1 mps 739 mmHg 73%
01:00 +21°C° 0.1 mm 2 mps 739 mmHg 75%
02:00 +21°C° 0.2 mm 2 mps 739 mmHg 78%
03:00 +20°C° 0.2 mm 2 mps 739 mmHg 80%
04:00 +20°C° 0.2 mm 2 mps 739 mmHg 82%
05:00 +21°C° 0 mm 3 mps 739 mmHg 80%
06:00 +21°C° 0 mm 3 mps 740 mmHg 78%
07:00 +22°C° 0 mm 4 mps 740 mmHg 76%
08:00 +23°C° 0.1 mm 4 mps 740 mmHg 69%
09:00 +23°C° 0.1 mm 4 mps 740 mmHg 63%
10:00 +25°C° 0.1 mm 4 mps 740 mmHg 56%
11:00 +26°C° 0 mm 5 mps 740 mmHg 50%
12:00 +27°C° 0 mm 5 mps 740 mmHg 44%
13:00 +28°C° 0 mm 6 mps 740 mmHg 37%
14:00 +27°C° 0 mm 6 mps 740 mmHg 37%
15:00 +27°C° 0 mm 6 mps 740 mmHg 38%
16:00 +27°C° 0 mm 6 mps 740 mmHg 38%
17:00 +26°C° 0 mm 5 mps 740 mmHg 44%
18:00 +23°C° 0 mm 4 mps 741 mmHg 49%
19:00 +22°C° 0 mm 3 mps 741 mmHg 55%
20:00 +21°C° 0 mm 2 mps 741 mmHg 59%
21:00 +19°C° 0 mm 2 mps 741 mmHg 63%
22:00 +19°C° 0 mm 1 mps 741 mmHg 68%
23:00 +18°C° 0 mm 1 mps 741 mmHg 69%

1 August, Sunday

Time Temperature Precipitation Wind Pressure Humidity
00:00 +18°C° 0 mm 1 mps 742 mmHg 70%
01:00 +18°C° 0 mm 1 mps 742 mmHg 71%
02:00 +16°C° 0 mm 1 mps 741 mmHg 72%
03:00 +16°C° 0 mm 1 mps 741 mmHg 72%
04:00 +16°C° 0 mm 1 mps 741 mmHg 73%
05:00 +18°C° 0.2 mm 1 mps 741 mmHg 73%
06:00 +18°C° 0.2 mm 1 mps 741 mmHg 73%
07:00 +19°C° 0.2 mm 1 mps 741 mmHg 73%
08:00 +18°C° 0.3 mm 2 mps 741 mmHg 76%
09:00 +18°C° 0.3 mm 2 mps 741 mmHg 79%
10:00 +17°C° 0.3 mm 2 mps 741 mmHg 83%
11:00 +18°C° 0.1 mm 2 mps 740 mmHg 83%
12:00 +18°C° 0.1 mm 2 mps 740 mmHg 84%
13:00 +19°C° 0.1 mm 1 mps 740 mmHg 85%
14:00 +19°C° 0.2 mm 1 mps 740 mmHg 86%
15:00 +19°C° 0.2 mm 1 mps 740 mmHg 87%
16:00 +19°C° 0.2 mm 1 mps 740 mmHg 88%
17:00 +18°C° 0.8 mm 1 mps 740 mmHg 91%
18:00 +17°C° 0.8 mm 2 mps 740 mmHg 93%
19:00 +16°C° 0.8 mm 2 mps 740 mmHg 95%
20:00 +16°C° 0.5 mm 2 mps 740 mmHg 95%
21:00 +16°C° 0.5 mm 2 mps 740 mmHg 94%
22:00 +16°C° 0.5 mm 2 mps 741 mmHg 94%
23:00 +15°C° 0 mm 2 mps 741 mmHg 92%

2 August, Monday

Time Temperature Precipitation Wind Pressure Humidity
00:00 +15°C° 0 mm 2 mps 741 mmHg 91%
01:00 +14°C° 0 mm 2 mps 740 mmHg 89%
02:00 +14°C° 0 mm 2 mps 741 mmHg 89%
03:00 +14°C° 0 mm 2 mps 741 mmHg 89%
04:00 +14°C° 0 mm 2 mps 741 mmHg 89%
05:00 +15°C° 0 mm 2 mps 741 mmHg 84%
06:00 +17°C° 0 mm 2 mps 741 mmHg 80%
07:00 +18°C° 0 mm 2 mps 741 mmHg 75%
08:00 +20°C° 0.2 mm 3 mps 741 mmHg 69%
09:00 +21°C° 0.2 mm 3 mps 742 mmHg 63%
10:00 +22°C° 0.2 mm 4 mps 742 mmHg 57%
11:00 +23°C° 0.4 mm 5 mps 742 mmHg 56%
12:00 +23°C° 0.4 mm 5 mps 742 mmHg 55%
13:00 +23°C° 0.4 mm 5 mps 742 mmHg 54%
14:00 +23°C° 0.1 mm 5 mps 742 mmHg 53%
15:00 +23°C° 0.1 mm 5 mps 742 mmHg 52%
16:00 +23°C° 0.1 mm 5 mps 743 mmHg 52%
17:00 +21°C° 0.2 mm 4 mps 743 mmHg 58%
18:00 +20°C° 0.2 mm 4 mps 743 mmHg 65%
19:00 +19°C° 0.2 mm 3 mps 743 mmHg 71%
20:00 +18°C° 0 mm 3 mps 743 mmHg 73%
21:00 +17°C° 0 mm 2 mps 744 mmHg 75%
22:00 +16°C° 0 mm 2 mps 744 mmHg 77%
23:00 +16°C° 0 mm 2 mps 744 mmHg 78%
Show more